Weather History for Challis, ID

Change the Weather History Date:

Saturday, September 7, 2013

  Actual Average Record
Temperature  
Mean Temperature 67 °F 59 °F  
Max Temperature 87 °F 77 °F 92 °F (1979)
Min Temperature 47 °F 42 °F 29 °F (1992)
Cooling Degree Days 2 0  
Month to date cooling degree days 22 4  
Year to date cooling degree days 412 246  
Growing Degree Days 18 (Base 50)    
Moisture  
Dew Point 33 °F    
Average Humidity 35    
Maximum Humidity 59    
Minimum Humidity 11    
Precipitation  
Precipitation T in 0.03 in 0.35 in (1973)
Month to date precipitation 0.24 0.18  
Year to date precipitation 2.75 7.57  
Sea Level Pressure  
Sea Level Pressure 29.95 in    
Wind  
Wind Speed 4 mph (SSW)    
Max Wind Speed 25 mph    
Max Gust Speed 31 mph    
Visibility 10 miles    
Events      
T = Trace of Precipitation, MM = Missing Value Source: NWS Daily Summary

Daily Weather History Graph

Daily Weather History Graph

Search for Another Location

Airport:

Trip Planner

Search our weather history database for the weather conditions in past years. The results will help you decide how hot, cold, wet, or windy it might be!

Date:

Astronomy

Sep. 07, 2013 Rise Set
Actual Time 7:06 AM MDT 8:01 PM MDT
Civil Twilight 6:37 AM MDT 8:31 PM MDT
Nautical Twilight 6:01 AM MDT 9:06 PM MDT
Astronomical Twilight 5:24 AM MDT 9:43 PM MDT
Moon 9:33 AM MDT (9/7) 8:53 PM MDT (9/7)
Length of Visible Light 13h 54m
Length of Day
12h 54m
Waxing Crescent, 5% of the Moon is Illuminated
Sep 7
Waxing Crescent
Sep 12
First Quarter
Sep 19
Full
Sep 26
Last Quarter
Oct 4
New

Hourly Weather History & Observations

Time (MDT) Temp. Dew Point Humidity Pressure Visibility Wind Dir Wind Speed Gust Speed Precip Events Conditions
12:55 AM 60.1 °F 33.1 °F 36% 29.99 in 10.0 mi Calm Calm - N/A   Clear
1:55 AM 57.9 °F 33.1 °F 39% 30.00 in 10.0 mi Calm Calm - N/A   Mostly Cloudy
2:55 AM 57.9 °F 32.0 °F 37% 30.00 in 10.0 mi South 3.5 mph - N/A   Clear
3:55 AM 51.1 °F 37.0 °F 59% 30.00 in 10.0 mi Calm Calm - N/A   Clear
4:55 AM 48.0 °F 33.1 °F 56% 30.00 in 10.0 mi WNW 3.5 mph - N/A   Clear
5:55 AM 53.1 °F 34.0 °F 48% 29.97 in 10.0 mi Calm Calm - N/A   Clear
6:55 AM 48.0 °F 34.0 °F 58% 30.01 in 10.0 mi Calm Calm - N/A   Clear
7:55 AM 53.1 °F 35.1 °F 50% 30.01 in 10.0 mi Calm Calm - N/A   Clear
8:55 AM 55.9 °F 35.1 °F 45% 30.02 in 10.0 mi Calm Calm - N/A   Clear
9:55 AM 60.1 °F 35.1 °F 39% 30.01 in 10.0 mi Calm Calm - N/A   Clear
10:55 AM 64.9 °F 35.1 °F 33% 30.01 in 10.0 mi Calm Calm - N/A   Clear
11:55 AM 70.0 °F 37.0 °F 30% 29.98 in 10.0 mi Calm Calm - N/A   Clear
12:55 PM 73.9 °F 41.0 °F 30% 29.94 in 10.0 mi Calm Calm - N/A   Clear
1:55 PM 78.1 °F 41.0 °F 27% 29.90 in 10.0 mi Variable 3.5 mph - N/A   Clear
2:55 PM 81.0 °F 41.0 °F 24% 29.86 in 10.0 mi East 4.6 mph - N/A   Partly Cloudy
3:55 PM 84.0 °F 35.1 °F 17% 29.84 in 10.0 mi SSE 6.9 mph - N/A   Partly Cloudy
4:30 PM 87.8 °F 24.8 °F 10% 30.02 in 10.0 mi SW 18.4 mph 31.1 mph N/A   Clear
4:55 PM 84.9 °F 24.1 °F 11% 29.84 in 10.0 mi SW 17.3 mph 24.2 mph N/A   Clear
5:55 PM 84.9 °F 25.0 °F 11% 29.83 in 10.0 mi WSW 9.2 mph 18.4 mph N/A   Clear
6:55 PM 82.0 °F 25.0 °F 12% 29.86 in 10.0 mi SSW 10.4 mph - N/A   Clear
7:55 PM 78.1 °F 26.1 °F 15% 29.86 in 10.0 mi WSW 9.2 mph - 0.00 in   Clear
8:55 PM 73.9 °F 28.0 °F 18% 29.90 in 10.0 mi SSE 5.8 mph - N/A   Clear
9:55 PM 68.0 °F 42.1 °F 39% 29.92 in 10.0 mi South 3.5 mph - N/A   Clear
10:55 PM 62.1 °F 36.0 °F 38% 29.94 in 10.0 mi Calm Calm - N/A   Clear
11:55 PM 61.0 °F 34.0 °F 36% 29.92 in 10.0 mi WNW 5.8 mph - N/A   Clear